RS21S (CUBESX-HSE-2) (53383 NORAD) Tracking and Keplerian Element Data

This shows tracking and keplerian element data for the satellite.

Feedback or suggestion? Click here.




ElementValue
Catalog53383
NameRS21S (CUBESX-HSE-2)
Epoch Orbit1584
Epoch Day325.20041972
Epoch Year2022
RAAN226.0608
Inclination97.4278
Eccentricity0.0006513
Argument of Perigee81.8392
Mean Anonmoly70.571
Mean Motion15.27240003
Decay Rate9.427E-05
L11 53383U 22096P 22325.20041972 .00009427 00000+0 35561-3 0 9994
L22 53383 97.4278 226.0608 0006513 81.8392 70.5710 15.27240003 15843



Live tracking and technical data element details for RS21S (CUBESX-HSE-2) (NORAD 53383). RS21S (CUBESX-HSE-2) can be tracked NOW for your location showing map with azimuth and elevation plus other details from your city location.







IsCatalogInMostPopularTable: catalog: 53383, numindb: 6
Update: records affected: 1



GetName: 53383 RS21S (CUBESX-HSE-2)

Hit Count: updated at: Tue, 29 Nov 2022 01:44:26 GMT